Wetbulb
41.07 40.53 39.57 39.35 39.92 40.08 40.08 40.42 40.54 41.20 41.44 41.23 41.03 40.46 39.83 38.96 38.40 37.83 37.77 37.68 37.86 37.85
41.46 40.56 39.89 39.63 40.19 39.84 40.45 41.50 40.75 41.12 40.81 40.76 40.31 39.78 39.05 38.26 37.61 37.72 37.43 37.18 37.32 36.89
42.41 41.48 40.25 40.38 39.95 40.11 40.61 41.07 40.59 40.29 40.32 40.13 39.84 39.52 38.81 37.93 37.79 37.67 37.19 37.20 36.15 35.28
42.45 42.14 40.85 41.11 40.88 40.44 41.02 40.41 40.52 40.67 40.31 40.01 39.38 38.94 38.13 37.98 38.15 37.26 36.40 35.77 34.97 33.75
42.75 42.43 41.14 41.54 41.39 41.05 40.89 40.88 40.92 41.01 40.72 40.15 39.34 38.77 38.28 38.37 38.01 37.06 35.86 34.82 33.63 33.32
42.40 42.38 41.74 41.77 41.66 41.80 41.19 41.14 40.83 40.75 40.28 39.71 39.18 38.54 38.16 38.17 37.72 36.99 35.63 33.88 33.46 32.96
42.70 42.75 42.43 42.50 42.09 42.00 41.66 40.99 40.47 40.26 40.28 39.80 39.04 39.17 38.89 38.09 36.93 36.65 36.24 35.54 34.62 34.36
43.74 43.42 43.14 42.75 42.36 42.14 41.72 41.15 40.72 40.09 39.62 39.26 38.92 39.16 37.98 37.78 36.66 36.25 36.04 36.07 35.40 35.06
43.72 43.50 43.23 42.61 42.23 42.08 41.41 40.60 39.98 39.19 38.87 37.52 39.00 38.22 38.00 36.98 36.04 36.56 36.01 35.26 34.49 36.11
44.14 43.54 43.13 42.81 42.19 41.72 40.36 39.15 38.87 38.79 38.50 36.88 36.15 37.65 37.98 36.76 35.66 34.95 34.55 34.09 34.39 35.27
44.27 43.61 43.02 42.64 42.00 41.44 40.13 39.28 38.64 38.10 37.99 36.52 36.02 37.23 37.61 36.10 34.74 33.99 34.51 33.87 34.52 32.32
44.45 43.68 42.97 41.97 41.27 40.97 39.91 38.18 38.49 38.89 37.82 35.69 34.44 36.21 36.42 35.40 34.53 34.39 34.03 34.74 34.65 32.21
44.88 43.92 43.08 42.25 41.07 39.86 40.75 39.76 40.12 38.52 38.35 36.87 34.84 35.21 35.89 35.17 34.05 33.55 33.23 33.10 33.34 33.54
45.01 44.05 43.73 42.26 41.49 41.17 40.25 39.85 38.80 38.89 37.84 36.95 35.46 33.31 35.53 35.29 33.23 33.41 32.04 31.39 30.76 30.21
MSLP
1021.94 1022.90 1023.68 1024.07 1024.51 1024.82 1025.10 1025.40 1025.69 1025.89 1025.97 1026.07 1026.18 1026.30 1026.42 1026.89 1027.03 1027.25 1027.52 1027.94 1028.23 1028.40
1021.61 1022.71 1023.69 1024.27 1024.63 1025.02 1025.25 1025.58 1026.00 1026.08 1026.32 1026.51 1026.68 1026.88 1027.25 1027.54 1027.71 1027.87 1028.30 1028.69 1028.76 1029.02
1021.56 1022.54 1023.29 1024.23 1024.78 1025.08 1025.38 1025.59 1026.03 1026.35 1026.63 1026.97 1027.23 1027.48 1027.70 1028.02 1028.26 1028.55 1028.89 1029.06 1029.34 1029.78
1021.83 1022.57 1023.01 1023.85 1024.57 1025.04 1025.31 1025.70 1026.05 1026.49 1026.96 1027.32 1027.58 1027.83 1028.08 1028.44 1028.68 1029.01 1029.26 1029.64 1029.93 1030.31
1021.71 1022.38 1022.85 1023.57 1024.20 1024.77 1025.41 1025.81 1026.08 1026.47 1027.01 1027.46 1027.73 1028.00 1028.29 1028.68 1029.07 1029.31 1029.71 1030.12 1030.35 1030.62
1021.53 1022.16 1022.60 1023.23 1023.94 1024.64 1025.29 1025.86 1026.26 1026.54 1027.01 1027.51 1027.85 1028.17 1028.46 1028.76 1029.21 1029.54 1029.85 1030.20 1030.48 1030.84
1021.00 1021.49 1022.32 1023.01 1023.74 1024.40 1025.02 1025.75 1026.27 1026.60 1026.99 1027.38 1027.87 1028.19 1028.53 1028.94 1029.39 1029.68 1029.97 1030.32 1030.60 1030.92
1020.55 1021.06 1021.90 1022.71 1023.42 1024.14 1024.85 1025.47 1026.00 1026.59 1027.05 1027.41 1027.77 1028.14 1028.59 1028.93 1029.40 1029.69 1030.17 1030.52 1030.71 1030.97
1020.09 1020.70 1021.42 1022.33 1023.02 1023.83 1024.61 1025.28 1025.96 1026.58 1027.06 1027.48 1027.54 1028.00 1028.37 1028.83 1029.42 1029.78 1030.11 1030.57 1030.82 1030.97
1019.53 1020.24 1020.98 1021.89 1022.71 1023.55 1024.36 1025.03 1025.79 1026.35 1026.89 1027.35 1027.67 1027.99 1028.35 1028.87 1029.34 1029.76 1030.14 1030.44 1030.74 1031.02
1018.91 1019.74 1020.60 1021.52 1022.35 1023.17 1023.97 1024.76 1025.48 1026.10 1026.74 1027.25 1027.64 1028.06 1028.39 1028.89 1029.31 1029.70 1030.01 1030.28 1030.67 1031.03
1018.12 1019.16 1020.11 1021.04 1021.94 1022.75 1023.56 1024.46 1025.11 1025.71 1026.48 1027.13 1027.61 1028.06 1028.46 1028.85 1029.29 1029.66 1029.91 1030.16 1030.64 1031.03
1017.44 1018.45 1019.45 1020.35 1021.44 1022.21 1023.01 1023.91 1024.68 1025.44 1025.97 1026.67 1027.25 1027.81 1028.28 1028.66 1029.20 1029.61 1030.03 1030.43 1030.78 1030.95
1016.87 1017.79 1018.75 1019.93 1020.95 1021.77 1022.69 1023.58 1024.31 1025.02 1025.65 1026.23 1026.67 1027.37 1027.78 1028.25 1028.80 1029.24 1029.93 1030.35 1030.86 1031.20
Wind_Speed
9 5 4 5 4 4 4 4 3 5 6 6 6 6 7 5 5 6 6 8 6 5
8 8 7 6 5 4 5 4 5 6 6 6 6 7 6 5 5 7 6 6 7 5
9 8 8 7 7 7 6 6 6 6 6 6 6 6 6 5 5 7 4 5 7 5
9 9 9 8 7 6 6 7 7 6 6 6 6 6 6 6 6 7 7 6 6 6
9 10 10 9 8 7 7 6 7 7 6 6 6 6 7 6 6 7 7 6 6 6
10 10 10 10 9 8 8 7 6 6 7 6 6 6 6 6 6 6 6 6 6 6
12 12 11 10 10 9 8 8 7 6 6 7 6 6 6 6 6 6 6 6 6 6
12 11 11 11 11 9 9 8 7 7 6 6 6 5 7 6 6 7 6 5 5 5
12 13 13 12 11 11 9 8 7 7 7 7 4 10 10 8 6 6 7 6 5 5
13 13 13 12 12 12 11 8 8 7 7 7 6 10 11 10 6 6 6 6 6 5
14 14 13 13 13 11 9 10 8 7 7 6 5 9 11 10 7 6 6 6 6 6
15 15 14 14 13 10 9 6 6 7 8 7 6 9 10 9 6 6 6 5 6 6
16 16 15 14 13 8 9 9 8 7 8 9 8 11 11 8 4 5 4 3 4 8
15 15 14 13 10 11 9 9 8 9 6 7 8 8 13 12 5 5 4 4 4 4
Wind_Direction
142 141 148 151 143 138 128 126 126 109 98 87 83 77 74 77 83 83 80 81 73 72
143 142 155 145 135 135 125 127 132 116 107 97 91 91 90 88 85 82 82 84 79 74
157 149 142 140 149 150 144 128 129 122 115 111 109 110 101 90 88 93 81 88 84 69
155 155 144 149 153 152 140 144 138 135 132 132 127 119 105 104 103 97 96 83 90 82
154 155 149 153 155 152 152 154 147 142 140 139 131 132 125 120 122 117 109 108 99 97
157 159 159 159 157 156 151 154 147 140 142 143 144 138 131 130 129 126 124 122 113 118
166 165 165 159 159 157 156 149 152 155 151 149 150 143 139 132 132 130 125 122 120 126
168 161 157 159 161 155 155 158 157 152 156 154 151 155 147 141 142 134 130 133 131 125
163 161 162 162 159 158 160 156 152 159 159 162 165 161 152 146 151 149 144 151 138 136
165 164 164 163 160 164 166 149 163 163 159 171 180 169 158 151 153 146 153 153 150 147
166 165 163 164 167 165 161 164 164 164 166 165 185 171 159 155 153 152 164 164 166 153
168 166 166 170 168 166 155 156 163 164 163 173 183 172 161 147 155 159 168 168 162 153
169 169 173 169 168 163 165 166 163 162 171 181 180 178 176 162 156 157 154 132 147 158
170 172 170 162 164 160 161 160 167 172 175 180 179 183 177 175 168 167 165 164 167 173